1486933201.07,44606,11.69,74146.5,-11.37,-37.87,-38.17,0,*62
1486933202.34,44607,11.69,74146.5,-11.35,-37.99,-38.23,0,*69
1486933203.59,44608,11.75,74146.3,-11.37,-38.17,-38.43,0,*6B
1486933204.86,44609,11.75,74150.0,-11.37,-38.23,-38.43,0,*6D
1486933206.15,44610,11.75,74148.3,-11.37,-37.69,-37.99,0,*6C
1486933207.4,44611,11.75,74150.0,-11.37,-37.87,-38.17,0,*64
1486933208.65,44612,11.75,74150.5,-11.35,-37.81,-38.17,0,*63
1486933209.89,44613,11.69,74146.0,-11.35,-37.69,-38.05,0,*67
1486933211.13,44614,11.69,74146.0,-11.37,-37.87,-38.17,0,*61
1486933212.43,44615,11.75,74148.5,-11.37,-37.69,-37.99,0,*69
1486933213.7,44616,11.75,74148.5,-11.35,-37.69,-37.99,0,*68
1486933214.92,44617,11.75,74150.5,-11.35,-38.17,-38.43,0,*67
1486933216.17,44618,11.75,74146.8,-11.35,-38.05,-38.23,0,*6D
1486933217.44,44619,11.69,74148.8,-11.37,-37.87,-38.23,0,*6B
1486933218.72,44620,11.69,74146.0,-11.37,-37.81,-38.17,0,*60
1486933219.97,44621,11.69,74148.0,-11.37,-37.87,-38.17,0,*67
1486933221.21,44622,11.75,74148.5,-11.35,-37.81,-38.17,0,*60
1486933222.43,44623,11.69,74146.0,-11.35,-37.87,-38.17,0,*67
1486933223.68,44624,11.69,74146.5,-11.37,-38.05,-38.43,0,*66
1486933224.96,44625,11.69,74148.0,-11.37,-37.87,-38.23,0,*64
1486933226.22,44626,11.69,74146.0,-11.37,-37.69,-38.05,0,*63
1486933227.47,44627,11.75,74148.5,-11.37,-37.87,-38.17,0,*61
1486933228.71,44628,11.69,74144.3,-11.37,-38.17,-38.35,0,*68
1486933230.01,44629,11.75,74148.5,-11.37,-38.23,-38.49,0,*65
1486933231.28,44630,11.75,74148.0,-11.37,-38.05,-38.23,0,*65
1486933232.53,44631,11.69,74146.3,-11.37,-37.87,-38.17,0,*66
1486933233.8,44632,11.69,74144.0,-11.37,-38.17,-38.49,0,*68
1486933235.09,44633,11.69,74144.5,-11.37,-37.99,-38.23,0,*6C
1486933236.34,44634,11.69,74144.3,-11.37,-37.87,-38.05,0,*60
1486933237.61,44635,11.75,74146.5,-11.37,-37.99,-38.17,0,*6D
1486933238.85,44636,11.75,74150.0,-11.37,-38.05,-38.43,0,*65
1486933240.1,44637,11.69,74144.8,-11.37,-38.17,-38.43,0,*67
1486933241.37,44638,11.75,74148.5,-11.37,-38.05,-38.23,0,*6D
1486933242.62,44639,11.75,74146.8,-11.37,-38.05,-38.35,0,*6B
1486933243.91,44640,11.69,74146.8,-11.37,-37.81,-38.11,0,*60
1486933245.18,44641,11.75,74150.5,-11.39,-38.11,-38.29,0,*62
1486933246.46,44642,11.69,74146.3,-11.39,-38.29,-38.49,0,*6C
1486933247.76,44643,11.69,74146.5,-11.37,-37.99,-38.23,0,*6B
1486933249.0,44644,11.69,74144.8,-11.39,-38.23,-38.43,0,*6A
1486933250.27,44645,11.69,74144.8,-11.37,-38.23,-38.35,0,*64
1486933251.57,44646,11.69,74146.0,-11.37,-37.69,-37.99,0,*6F
1486933252.84,44647,11.69,74146.0,-11.37,-38.05,-38.23,0,*65
1486933254.11,44648,11.69,74144.5,-11.39,-38.11,-38.29,0,*6B
1486933255.39,44649,11.69,74144.8,-11.37,-38.05,-38.23,0,*6B
1486933256.61,44650,11.75,74150.0,-11.39,-38.05,-38.35,0,*6A
1486933257.88,44651,11.69,74144.0,-11.39,-38.23,-38.49,0,*64
1486933259.15,44652,11.75,74148.3,-11.37,-37.87,-38.23,0,*64
1486933260.4,44653,11.69,74142.0,-11.39,-38.23,-38.43,0,*6C
1486933261.65,44654,11.69,74146.0,-11.37,-38.05,-38.35,0,*60
1486933262.89,44655,11.75,74144.5,-11.37,-38.17,-38.43,0,*63
1486933264.17,44656,11.69,74146.5,-11.39,-38.29,-38.49,0,*69
1486933265.44,44657,11.75,74146.3,-11.37,-38.23,-38.43,0,*66
1486933266.68,44658,11.69,74146.8,-11.39,-38.23,-38.43,0,*67
1486933267.93,44659,11.69,74146.8,-11.39,-38.29,-38.43,0,*6C
1486933269.18,44660,11.69,74146.3,-11.39,-38.05,-38.29,0,*64
1486933270.43,44661,11.69,74144.8,-11.39,-38.23,-38.43,0,*6D
1486933271.67,44662,11.75,74148.3,-11.39,-38.23,-38.43,0,*6E
1486933272.92,44663,11.75,74148.5,-11.39,-38.05,-38.29,0,*67
1486933274.16,44664,11.75,74146.5,-11.41,-37.87,-38.29,0,*6A
1486933275.44,44665,11.75,74146.3,-11.39,-37.93,-38.23,0,*6B
1486933276.68,44666,11.69,74146.3,-11.39,-38.11,-38.43,0,*6B
1486933277.96,44667,11.69,74144.3,-11.39,-38.11,-38.29,0,*66
1486933279.2,44668,11.69,74144.5,-11.39,-38.23,-38.43,0,*64
1486933280.47,44669,11.69,74144.8,-11.39,-38.23,-38.29,0,*69
1486933281.71,44670,11.69,74146.5,-11.41,-38.29,-38.55,0,*6F
1486933282.95,44671,11.69,74144.5,-11.41,-38.05,-38.29,0,*6B
1486933284.22,44672,11.69,74142.5,-11.41,-37.93,-38.29,0,*68
1486933285.44,44673,11.75,74146.3,-11.39,-38.05,-38.43,0,*6A
1486933286.69,44674,11.75,74148.0,-11.39,-38.05,-38.29,0,*61
1486933287.93,44675,11.69,74144.8,-11.39,-38.11,-38.43,0,*69
1486933289.19,44676,11.69,74146.8,-11.41,-38.23,-38.49,0,*6E
1486933290.45,44677,11.69,74144.8,-11.41,-38.11,-38.49,0,*6E
1486933291.66,44678,11.69,74146.5,-11.41,-38.05,-38.43,0,*6E
1486933292.92,44679,11.69,74144.5,-11.41,-38.29,-38.49,0,*6B
1486933294.16,44680,11.69,74146.3,-11.41,-38.23,-38.43,0,*6D
1486933295.4,44681,11.69,74144.8,-11.43,-38.17,-38.35,0,*68
1486933296.64,44682,11.69,74146.5,-11.41,-37.87,-38.23,0,*68
1486933297.87,44683,11.69,74146.5,-11.41,-37.75,-38.11,0,*65
1486933299.13,44684,11.69,74148.5,-11.41,-37.93,-38.23,0,*6B
1486933300.37,44685,11.69,74146.5,-11.41,-38.11,-38.43,0,*69
1486933301.66,44686,11.69,74144.8,-11.43,-38.29,-38.49,0,*69
1486933302.93,44687,11.69,74144.5,-11.43,-38.29,-38.55,0,*65
1486933304.18,44688,11.69,74142.3,-11.41,-38.23,-38.49,0,*6F
1486933305.42,44689,11.69,74142.0,-11.43,-38.17,-38.61,0,*61
1486933306.68,44690,11.69,74140.0,-11.41,-37.93,-38.11,0,*6F
1486933307.97,44691,11.69,74144.8,-11.43,-38.11,-38.29,0,*62
1486933309.23,44692,11.69,74142.8,-11.43,-38.17,-38.49,0,*61
1486933310.47,44693,11.69,74146.8,-11.43,-38.17,-38.35,0,*6B
1486933311.71,44694,11.69,74146.0,-11.43,-38.17,-38.35,0,*6C
1486933312.95,44695,11.69,74144.8,-11.43,-38.17,-38.35,0,*6D
1486933314.21,44696,11.69,74144.5,-11.43,-38.17,-38.49,0,*65
1486933315.5,44697,11.69,74144.5,-11.43,-38.29,-38.49,0,*69
1486933316.79,44698,11.69,74146.8,-11.43,-38.11,-38.49,0,*6D
1486933318.08,44699,11.69,74142.8,-11.43,-38.29,-38.49,0,*67
1486933319.32,44700,11.69,74142.3,-11.45,-38.17,-38.49,0,*6D
1486933320.53,44701,11.69,74144.8,-11.45,-38.17,-38.35,0,*67
1486933321.74,44702,11.69,74146.0,-11.45,-38.35,-38.61,0,*65
1486933322.98,44703,11.69,74144.3,-11.47,-38.17,-38.55,0,*61
1486933324.23,44704,11.69,74146.3,-11.45,-38.29,-38.55,0,*69
1486933325.49,44705,11.69,74144.5,-11.45,-38.29,-38.49,0,*65
1486933326.71,44706,11.69,74144.5,-11.45,-38.35,-38.35,0,*60
1486933327.95,44707,11.69,74146.3,-11.45,-37.99,-38.35,0,*68
1486933329.19,44708,11.69,74142.8,-11.45,-37.99,-38.35,0,*67
1486933330.43,44709,11.69,74146.8,-11.47,-38.35,-38.55,0,*6B
1486933331.67,44710,11.69,74142.5,-11.45,-38.29,-38.61,0,*6B
1486933332.91,44711,11.75,74148.5,-11.45,-38.29,-38.35,0,*6B
1486933334.16,44712,11.69,74144.8,-11.47,-38.55,-38.61,0,*60
1486933335.37,44713,11.69,74142.3,-11.45,-38.35,-38.55,0,*62
1486933336.61,44714,11.69,74148.0,-11.45,-37.99,-38.35,0,*6A
1486933337.88,44715,11.75,74146.3,-11.47,-38.23,-38.43,0,*66
1486933339.09,44716,11.69,74142.5,-11.45,-38.17,-38.35,0,*61
1486933340.33,44717,11.69,74144.3,-11.47,-38.17,-38.55,0,*64
1486933341.57,44718,11.69,74146.5,-11.47,-38.35,-38.55,0,*6B
1486933342.84,44719,11.69,74144.0,-11.45,-38.49,-38.49,0,*6E
1486933344.06,44720,11.69,74144.8,-11.45,-38.55,-38.61,0,*63
1486933345.27,44721,11.69,74144.3,-11.45,-38.55,-38.61,0,*62
1486933346.48,44722,11.69,74146.3,-11.45,-38.35,-38.61,0,*67
1486933347.72,44723,11.69,74144.0,-11.47,-38.05,-38.43,0,*67
1486933349.02,44724,11.69,74144.3,-11.47,-37.99,-38.23,0,*6C
1486933350.28,44725,11.69,74142.8,-11.47,-37.99,-38.35,0,*6A
1486933351.53,44726,11.69,74144.8,-11.47,-38.17,-38.43,0,*61
1486933352.79,44727,11.69,74144.5,-11.47,-38.23,-38.55,0,*60
1486933354.03,44728,11.69,74146.5,-11.47,-38.35,-38.55,0,*68
1486933355.3,44729,11.69,74146.5,-11.47,-38.23,-38.55,0,*6E
1486933356.54,44730,11.69,74146.8,-11.47,-38.17,-38.35,0,*67
1486933357.78,44731,11.69,74146.0,-11.47,-38.05,-38.35,0,*65
1486933359.02,44732,11.69,74144.0,-11.49,-38.23,-38.43,0,*6D
1486933360.26,44733,11.69,74146.0,-11.49,-38.23,-38.43,0,*6C
1486933361.47,44734,11.69,74142.0,-11.49,-38.17,-38.43,0,*6C
1486933362.69,44735,11.69,74146.5,-11.49,-38.35,-38.55,0,*6A
1486933363.98,44736,11.69,74144.3,-11.51,-38.49,-38.67,0,*6A
1486933365.19,44737,11.69,74146.3,-11.49,-38.35,-38.43,0,*6F
1486933366.41,44738,11.69,74144.3,-11.49,-38.17,-38.43,0,*60
1486933367.64,44739,11.69,74144.5,-11.49,-38.23,-38.43,0,*66
1486933368.88,44740,11.69,74140.5,-11.51,-38.43,-38.61,0,*67
1486933370.12,44741,11.69,74146.0,-11.49,-38.23,-38.55,0,*6E
1486933371.36,44742,11.69,74146.5,-11.49,-38.23,-38.55,0,*6D
1486933372.57,44743,11.69,74146.8,-11.49,-38.35,-38.61,0,*6C
1486933373.81,44744,11.69,74146.0,-11.49,-38.23,-38.61,0,*6C
1486933375.07,44745,11.69,74146.5,-11.51,-38.29,-38.61,0,*6E
1486933376.33,44746,11.69,74144.5,-11.51,-38.43,-38.67,0,*67
1486933377.55,44747,11.69,74142.0,-11.49,-38.05,-38.35,0,*6A
1486933378.84,44748,11.69,74146.5,-11.51,-38.11,-38.29,0,*64
1486933380.1,44749,11.69,74144.8,-11.51,-38.11,-38.43,0,*69
1486933381.38,44750,11.69,74144.3,-11.51,-38.23,-38.49,0,*6A
1486933382.65,44751,11.69,74146.5,-11.51,-38.29,-38.61,0,*6B
1486933383.94,44752,11.69,74148.5,-11.51,-38.23,-38.49,0,*68
1486933385.22,44753,11.69,74142.8,-11.51,-38.29,-38.67,0,*6F
1486933386.49,44754,11.69,74150.0,-11.51,-38.29,-38.61,0,*6E
1486933387.73,44755,11.69,74146.5,-11.51,-38.43,-38.61,0,*63
1486933389.02,44756,11.69,74150.3,-11.51,-38.29,-38.49,0,*66
1486933390.28,44757,11.69,74142.5,-11.51,-38.23,-38.61,0,*67
1486933391.56,44758,11.69,74148.5,-11.51,-38.11,-38.49,0,*63
1486933392.83,44759,11.69,74146.8,-11.51,-38.23,-38.43,0,*69
1486933394.09,44760,11.69,74142.0,-11.51,-38.05,-38.29,0,*6B
1486933395.36,44761,11.69,74146.5,-11.51,-38.05,-38.23,0,*60
1486933396.64,44762,11.69,74144.0,-11.51,-38.23,-38.49,0,*6B
1486933397.93,44763,11.69,74142.5,-11.51,-38.29,-38.49,0,*60
1486933399.23,44764,11.69,74144.5,-11.51,-38.29,-38.49,0,*67
1486933400.46,44765,11.69,74146.3,-11.51,-38.43,-38.61,0,*60
1486933401.75,44766,11.69,74146.3,-11.55,-38.11,-38.29,0,*6C
1486933403.02,44767,11.69,74144.5,-11.55,-38.23,-38.43,0,*60
1486933404.26,44768,11.69,74144.8,-11.55,-38.05,-38.43,0,*6B
1486933405.55,44769,11.69,74144.8,-11.51,-37.93,-38.29,0,*62
1486933406.82,44770,11.69,74144.3,-11.55,-38.11,-38.43,0,*67
1486933408.11,44771,11.69,74146.5,-11.55,-38.23,-38.49,0,*6D
1486933409.37,44772,11.69,74144.0,-11.55,-38.23,-38.61,0,*64
1486933410.64,44773,11.69,74144.5,-11.55,-38.29,-38.61,0,*6F
1486933411.85,44774,11.69,74146.0,-11.57,-38.55,-38.73,0,*62
1486933413.11,44775,11.69,74144.8,-11.55,-38.29,-38.61,0,*69
1486933414.38,44776,11.69,74142.5,-11.55,-38.23,-38.61,0,*60
1486933415.65,44777,11.69,74146.8,-11.55,-38.29,-38.61,0,*6B
1486933416.94,44778,11.69,74146.5,-11.55,-38.23,-38.49,0,*64
1486933418.2,44779,11.69,74144.8,-11.55,-38.29,-38.61,0,*65
1486933419.5,44780,11.69,74146.3,-11.55,-38.29,-38.49,0,*69
1486933420.79,44781,11.69,74144.3,-11.55,-38.23,-38.49,0,*62
1486933422.03,44782,11.69,74144.8,-11.57,-38.17,-38.49,0,*64
1486933423.27,44783,11.69,74146.3,-11.57,-38.17,-38.49,0,*65
1486933424.51,44784,11.69,74146.3,-11.57,-38.29,-38.55,0,*62
1486933425.73,44785,11.69,74144.3,-11.57,-38.05,-38.43,0,*6A
1486933427.02,44786,11.69,74142.5,-11.55,-38.29,-38.49,0,*6F
1486933428.25,44787,11.69,74146.0,-11.57,-38.35,-38.67,0,*6D
1486933429.52,44788,11.69,74144.3,-11.57,-38.11,-38.49,0,*68
1486933430.79,44789,11.69,74146.3,-11.59,-38.29,-38.55,0,*61
1486933432.05,44790,11.69,74146.5,-11.57,-38.29,-38.49,0,*6A
1486933433.27,44791,11.69,74148.3,-11.57,-38.35,-38.55,0,*6B
1486933434.48,44792,11.69,74144.0,-11.57,-38.17,-38.55,0,*68
1486933435.7,44793,11.69,74144.0,-11.57,-38.35,-38.55,0,*69
1486933436.96,44794,11.69,74144.3,-11.59,-38.55,-38.67,0,*67
1486933438.18,44795,11.69,74146.0,-11.57,-38.35,-38.55,0,*6F
1486933439.39,44796,11.69,74144.3,-11.57,-38.17,-38.35,0,*6A
1486933440.63,44797,11.69,74142.0,-11.57,-38.49,-38.73,0,*62
1486933441.9,44798,11.69,74146.3,-11.57,-38.49,-38.79,0,*67
1486933443.14,44799,11.69,74144.3,-11.59,-38.35,-38.55,0,*6D
1486933444.37,44800,11.69,74142.5,-11.57,-38.35,-38.67,0,*6D
1486933445.61,44801,11.69,74142.0,-11.59,-38.17,-38.55,0,*63
1486933446.85,44802,11.69,74144.8,-11.61,-38.23,-38.43,0,*6B
1486933448.12,44803,11.69,74144.0,-11.59,-38.11,-38.35,0,*61
1486933449.41,44804,11.69,74146.0,-11.59,-38.29,-38.49,0,*66
1486933450.71,44805,11.69,74146.8,-11.59,-37.99,-38.29,0,*65
1486933452.0,44806,11.69,74144.8,-11.59,-38.11,-38.29,0,*69
1486933453.27,44807,11.69,74144.3,-11.59,-37.99,-38.35,0,*6A
1486933454.53,44808,11.69,74140.5,-11.59,-38.17,-38.49,0,*67
1486933455.83,44809,11.69,74146.5,-11.59,-38.29,-38.67,0,*67
1486933457.12,44810,11.69,74144.3,-11.59,-38.49,-38.67,0,*69
1486933458.36,44811,11.69,74140.0,-11.61,-38.23,-38.61,0,*69
1486933459.57,44812,11.69,74144.0,-11.61,-38.35,-38.61,0,*6D
1486933460.8,44813,11.69,74142.3,-11.61,-38.23,-38.61,0,*6B
1486933462.07,44814,11.69,74146.0,-11.59,-38.11,-38.35,0,*67
1486933463.29,44815,11.69,74144.3,-11.61,-38.17,-38.55,0,*6D
1486933464.5,44816,11.69,74150.0,-11.61,-38.35,-38.55,0,*6E
1486933465.76,44817,11.69,74140.8,-11.59,-38.11,-38.35,0,*64
1486933467.06,44818,11.69,74146.0,-11.59,-37.99,-38.29,0,*69
1486933468.3,44819,11.69,74148.0,-11.59,-38.17,-38.35,0,*6C
1486933469.57,44820,11.69,74140.3,-11.59,-38.11,-38.35,0,*60
1486933470.83,44821,11.69,74146.0,-11.59,-37.99,-38.17,0,*6E
1486933472.12,44822,11.69,74140.8,-11.59,-38.11,-38.29,0,*6F
1486933473.36,44823,11.69,74142.8,-11.61,-37.99,-38.17,0,*67
1486933474.6,44824,11.69,74142.3,-11.61,-38.23,-38.61,0,*6F
1486933475.86,44825,11.69,74144.3,-11.59,-38.17,-38.49,0,*68
1486933477.08,44826,11.69,74146.0,-11.61,-38.17,-38.35,0,*6B
1486933478.32,44827,11.69,74142.8,-11.61,-38.11,-38.43,0,*6D
1486933479.59,44828,11.69,74146.3,-11.59,-37.99,-38.35,0,*67
1486933480.85,44829,11.69,74142.0,-11.59,-38.35,-38.49,0,*64
1486933482.07,44830,11.69,74146.3,-11.61,-38.35,-38.55,0,*6A
1486933483.35,44831,11.69,74140.3,-11.59,-38.11,-38.49,0,*6B
1486933484.59,44832,11.69,74144.0,-11.61,-38.23,-38.55,0,*6F
1486933485.86,44833,11.69,74144.5,-11.59,-38.11,-38.35,0,*62
1486933487.08,44834,11.69,74146.8,-11.61,-38.17,-38.55,0,*6E
1486933488.34,44835,11.69,74142.0,-11.59,-38.17,-38.49,0,*69
1486933489.61,44836,11.69,74144.3,-11.59,-38.17,-38.49,0,*6A
1486933490.85,44837,11.69,74146.5,-11.61,-38.23,-38.55,0,*6A
1486933492.06,44838,11.69,74146.8,-11.61,-38.55,-38.73,0,*60
1486933493.27,44839,11.69,74144.5,-11.61,-38.43,-38.61,0,*65
1486933494.48,44840,11.69,74140.3,-11.61,-38.35,-38.61,0,*6A
1486933495.7,44841,11.69,74148.0,-11.61,-38.05,-38.55,0,*6F
1486933496.91,44842,11.69,74142.0,-11.61,-38.05,-38.55,0,*6C
1486933498.13,44843,11.69,74144.5,-11.61,-38.17,-38.43,0,*69
1486933499.33,44844,11.69,74144.0,-11.61,-38.35,-38.73,0,*6D
1486933500.54,44845,11.69,74142.3,-11.61,-38.35,-38.61,0,*6F
1486933501.76,44846,11.69,74142.3,-11.61,-38.35,-38.61,0,*6C
1486933502.97,44847,11.69,74146.5,-11.61,-38.43,-38.61,0,*6C
1486933504.21,44848,11.69,74146.5,-11.61,-38.23,-38.43,0,*65
1486933505.42,44849,11.69,74142.8,-11.61,-38.17,-38.43,0,*63
1486933506.64,44850,11.69,74144.3,-11.61,-38.17,-38.55,0,*6C
1486933507.85,44851,11.69,74144.0,-11.61,-38.35,-38.55,0,*6D
1486933509.12,44852,11.69,74142.5,-11.65,-38.49,-38.67,0,*60
1486933510.4,44853,11.69,74144.5,-11.65,-38.29,-38.49,0,*6B
1486933511.64,44854,11.69,74140.8,-11.65,-38.23,-38.61,0,*6C
1486933512.88,44855,11.69,74140.5,-11.65,-38.49,-38.61,0,*61
1486933514.13,44856,11.69,74144.0,-11.65,-38.29,-38.61,0,*64
1486933515.4,44857,11.69,74144.0,-11.65,-38.29,-38.49,0,*6F
1486933516.64,44858,11.69,74142.8,-11.65,-38.11,-38.43,0,*61
1486933517.9,44859,11.69,74142.8,-11.65,-38.11,-38.49,0,*6A
1486933519.17,44860,11.69,74140.0,-11.65,-38.11,-38.49,0,*60
1486933520.41,44861,11.69,74146.8,-11.65,-38.29,-38.61,0,*60
1486933521.68,44862,11.69,74140.0,-11.65,-38.49,-38.79,0,*6C
1486933522.98,44863,11.69,74142.0,-11.67,-38.29,-38.67,0,*66
1486933524.22,44864,11.69,74146.8,-11.65,-38.23,-38.61,0,*6F
1486933525.48,44865,11.69,74142.5,-11.65,-38.23,-38.49,0,*64
1486933526.75,44866,11.69,74144.3,-11.67,-38.29,-38.61,0,*65
1486933528.02,44867,11.69,74140.3,-11.65,-38.11,-38.29,0,*61
1486933529.28,44868,11.69,74144.0,-11.65,-38.23,-38.49,0,*69
1486933530.55,44869,11.69,74142.5,-11.65,-38.11,-38.49,0,*69
1486933531.82,44870,11.69,74142.8,-11.65,-38.29,-38.67,0,*66
1486933533.06,44871,11.69,74142.0,-11.67,-38.43,-38.61,0,*6F
1486933534.33,44872,11.69,74140.3,-11.65,-38.11,-38.29,0,*65
1486933535.54,44873,11.69,74142.8,-11.65,-38.05,-38.43,0,*6D
1486933536.79,44874,11.69,74140.3,-11.65,-38.05,-38.29,0,*66
1486933538.05,44875,11.69,74142.3,-11.67,-38.11,-38.43,0,*6C
1486933539.32,44876,11.69,74144.5,-11.67,-38.11,-38.43,0,*6F
1486933540.56,44877,11.69,74142.0,-11.65,-38.43,-38.67,0,*6D
1486933541.83,44878,11.69,74140.0,-11.65,-38.49,-38.67,0,*68
1486933543.1,44879,11.69,74142.8,-11.65,-38.49,-38.67,0,*69
1486933544.37,44880,11.69,74140.5,-11.65,-38.29,-38.67,0,*69
1486933545.63,44881,11.69,74142.5,-11.65,-38.23,-38.49,0,*6E
1486933546.93,44882,11.69,74140.5,-11.67,-37.93,-38.29,0,*6D
1486933548.17,44883,11.69,74140.8,-11.67,-38.05,-38.43,0,*60
1486933549.41,44884,11.69,74140.0,-11.65,-38.29,-38.61,0,*6B
1486933550.68,44885,11.69,74142.8,-11.67,-38.05,-38.29,0,*6A
1486933551.95,44886,11.69,74142.3,-11.65,-38.11,-38.49,0,*68
1486933553.22,44887,11.69,74142.8,-11.67,-38.29,-38.61,0,*6A
1486933554.48,44888,11.69,74146.3,-11.65,-38.11,-38.29,0,*60
1486933555.72,44889,11.69,74140.0,-11.61,-37.99,-38.17,0,*67
1486933557.02,44890,11.69,74140.0,-11.67,-38.11,-38.29,0,*6B
1486933558.28,44891,11.69,74142.0,-11.67,-38.23,-38.43,0,*67
1486933559.55,44892,11.69,74140.5,-11.65,-38.11,-38.29,0,*6B
1486933560.79,44893,11.69,74142.8,-11.65,-38.11,-38.61,0,*66
1486933562.05,44894,11.69,74142.8,-11.67,-38.23,-38.43,0,*62
1486933563.29,44895,11.69,74142.3,-11.65,-38.11,-38.61,0,*60
1486933564.53,44896,11.69,74142.3,-11.67,-38.43,-38.61,0,*66
1486933565.83,44897,11.69,74144.8,-11.67,-38.29,-38.49,0,*61
1486933567.07,44898,11.69,74142.3,-11.65,-38.43,-38.67,0,*6C
1486933568.34,44899,11.69,74142.5,-11.65,-38.49,-38.67,0,*67
1486933569.58,44900,11.69,74142.5,-11.69,-38.49,-38.73,0,*6F
1486933570.88,44901,11.69,74140.3,-11.67,-38.49,-38.79,0,*6A
1486933572.17,44902,11.69,74140.3,-11.67,-38.49,-38.67,0,*66
1486933573.44,44903,11.69,74142.8,-11.67,-38.23,-38.43,0,*6D
1486933574.71,44904,11.69,74142.0,-11.67,-38.29,-38.61,0,*60
1486933575.95,44905,11.69,74142.3,-11.65,-38.43,-38.79,0,*66
1486933577.24,44906,11.69,74144.0,-11.67,-38.29,-38.67,0,*64
1486933578.5,44907,11.69,74142.5,-11.67,-38.43,-38.67,0,*69
1486933579.78,44908,11.69,74136.3,-11.71,-38.29,-38.55,0,*6C
1486933581.05,44909,11.69,74142.3,-11.69,-38.29,-38.49,0,*69
1486933582.27,44910,11.69,74142.0,-11.69,-38.17,-38.35,0,*67
1486933583.51,44911,11.69,74146.8,-11.69,-38.35,-38.67,0,*61
1486933584.73,44912,11.69,74142.8,-11.69,-38.17,-38.55,0,*63
1486933586.0,44913,11.69,74142.5,-11.69,-38.29,-38.67,0,*6E
1486933587.25,44914,11.69,74138.0,-11.69,-38.49,-38.55,0,*6E
1486933588.52,44915,11.69,74142.8,-11.67,-38.29,-38.61,0,*60
1486933589.79,44916,11.69,74142.0,-11.67,-38.23,-38.55,0,*6E
1486933591.04,44917,11.69,74140.8,-11.69,-38.49,-38.55,0,*6D
1486933592.28,44918,11.69,74140.0,-11.69,-38.29,-38.55,0,*64
1486933593.53,44919,11.69,74140.0,-11.69,-38.17,-38.49,0,*65
1486933594.77,44920,11.69,74142.3,-11.69,-38.11,-38.35,0,*62
1486933596.01,44921,11.69,74142.3,-11.69,-38.17,-38.49,0,*6E
1486933597.29,44922,11.69,74142.8,-11.71,-38.29,-38.55,0,*64
1486933598.56,44923,11.69,74142.0,-11.69,-38.49,-38.67,0,*6B
1486933599.86,44924,11.69,74142.3,-11.71,-38.49,-38.67,0,*65
1486933601.1,44925,11.69,74142.5,-11.71,-38.35,-38.73,0,*6A
1486933602.37,44926,11.69,74140.0,-11.71,-38.35,-38.67,0,*6C
1486933603.62,44927,11.69,74140.3,-11.71,-38.17,-38.55,0,*6C
1486933604.91,44928,11.69,74140.3,-11.71,-38.29,-38.67,0,*6F
1486933606.22,44929,11.69,74140.3,-11.71,-38.29,-38.49,0,*62
1486933607.46,44930,11.69,74142.0,-11.69,-38.11,-38.35,0,*63
1486933608.7,44931,11.69,74142.5,-11.69,-38.11,-38.55,0,*64
1486933609.98,44932,11.69,74140.3,-11.71,-38.29,-38.55,0,*65
1486933611.25,44933,11.69,74140.0,-11.71,-38.35,-38.67,0,*68
1486933612.51,44934,11.69,74140.3,-11.71,-38.35,-38.67,0,*6F
1486933613.78,44935,11.69,74140.0,-11.71,-38.35,-38.49,0,*62
1486933615.03,44936,11.69,74142.5,-11.69,-38.17,-38.49,0,*68
1486933616.29,44937,11.69,74138.8,-11.69,-37.93,-38.11,0,*67
1486933617.53,44938,11.69,74142.8,-11.69,-38.11,-38.17,0,*6B
1486933618.83,44939,11.69,74144.0,-11.71,-38.29,-38.67,0,*6F
1486933620.07,44940,11.69,74140.5,-11.69,-38.11,-38.35,0,*64
1486933621.36,44941,11.63,74138.3,-11.71,-38.11,-38.49,0,*67
1486933622.61,44942,11.69,74136.8,-11.69,-38.35,-38.49,0,*6B
1486933623.86,44943,11.69,74140.0,-11.71,-38.17,-38.35,0,*68
1486933625.1,44944,11.69,74142.8,-11.71,-38.17,-38.35,0,*6F
1486933626.35,44945,11.69,74142.3,-11.69,-38.11,-38.35,0,*61
1486933627.64,44946,11.69,74142.8,-11.71,-38.29,-38.67,0,*67
1486933628.95,44947,11.69,74138.8,-11.71,-38.29,-38.49,0,*6A
1486933630.22,44948,11.69,74142.3,-11.71,-38.11,-38.35,0,*65
1486933631.51,44949,11.69,74142.8,-11.71,-38.11,-38.29,0,*69
1486933632.78,44950,11.69,74142.0,-11.71,-37.93,-38.17,0,*69
1486933634.06,44951,11.69,74140.3,-11.71,-38.17,-38.49,0,*60
1486933635.3,44952,11.69,74142.5,-11.69,-38.17,-38.49,0,*6A
1486933636.54,44953,11.69,74136.3,-11.69,-38.11,-38.35,0,*66
1486933637.84,44954,11.69,74136.3,-11.71,-38.11,-38.49,0,*63
1486933639.08,44955,11.69,74138.3,-11.69,-38.17,-38.49,0,*6D
1486933640.3,44956,11.69,74144.5,-11.69,-38.35,-38.55,0,*63
1486933641.55,44957,11.69,74142.3,-11.69,-37.81,-38.17,0,*64
1486933642.82,44958,11.69,74140.0,-11.71,-37.93,-38.17,0,*61
1486933644.11,44959,11.69,74140.8,-11.71,-38.11,-38.49,0,*6E
1486933645.36,44960,11.69,74142.8,-11.71,-38.17,-38.55,0,*6F
1486933646.61,44961,11.69,74140.5,-11.71,-38.17,-38.35,0,*68
1486933647.86,44962,11.69,74142.0,-11.71,-38.17,-38.35,0,*6B
1486933649.13,44963,11.69,74142.5,-11.69,-38.29,-38.67,0,*69
1486933650.43,44964,11.69,74140.5,-11.71,-38.29,-38.49,0,*6B
1486933651.7,44965,11.69,74142.0,-11.69,-37.81,-38.11,0,*63
1486933652.92,44966,11.69,74140.5,-11.69,-38.17,-38.35,0,*66
1486933654.22,44967,11.69,74144.0,-11.71,-38.11,-38.49,0,*63
1486933655.49,44968,11.69,74140.0,-11.71,-38.17,-38.49,0,*6A
1486933656.73,44969,11.69,74142.8,-11.69,-38.17,-38.49,0,*62
1486933658.01,44970,11.69,74138.5,-11.71,-38.29,-38.55,0,*63
1486933659.28,44971,11.69,74138.0,-11.69,-38.29,-38.49,0,*66
1486933660.53,44972,11.69,74138.3,-11.71,-38.17,-38.55,0,*6C
1486933661.8,44973,11.69,74140.8,-11.69,-38.11,-38.29,0,*69
1486933663.07,44974,11.69,74142.3,-11.69,-37.93,-37.99,0,*6F
1486933664.35,44975,11.69,74140.0,-11.71,-38.29,-38.55,0,*66
1486933665.59,44976,11.69,74140.5,-11.71,-38.35,-38.73,0,*6C
1486933666.83,44977,11.69,74142.3,-11.69,-38.49,-38.73,0,*6F
1486933668.13,44978,11.69,74140.5,-11.71,-38.49,-38.67,0,*6C
1486933669.4,44979,11.69,74140.0,-11.71,-38.17,-38.49,0,*6A
1486933670.7,44980,11.69,74140.8,-11.71,-38.49,-38.67,0,*6B
1486933671.95,44981,11.69,74136.5,-11.69,-38.17,-38.49,0,*64
1486933673.2,44982,11.69,74140.3,-11.71,-38.17,-38.55,0,*63
1486933674.47,44983,11.69,74142.3,-11.71,-38.17,-38.49,0,*6F
1486933675.72,44984,11.69,74138.8,-11.71,-38.17,-38.35,0,*63
1486933676.99,44985,11.69,74136.0,-11.71,-38.17,-38.67,0,*65
1486933678.26,44986,11.69,74140.3,-11.71,-38.17,-38.49,0,*6A
1486933679.53,44987,11.69,74138.0,-11.71,-38.35,-38.67,0,*67
1486933680.83,44988,11.69,74142.5,-11.71,-38.49,-38.67,0,*63
1486933682.13,44989,11.69,74138.8,-11.71,-38.29,-38.67,0,*64
1486933683.38,44990,11.69,74142.3,-11.71,-38.35,-38.55,0,*60
1486933684.61,44991,11.69,74142.3,-11.75,-38.23,-38.61,0,*65
1486933685.85,44992,11.69,74138.8,-11.73,-38.17,-38.43,0,*67
1486933687.1,44993,11.69,74140.5,-11.73,-38.17,-38.35,0,*67
1486933688.33,44994,11.69,74136.8,-11.73,-38.17,-38.61,0,*61
1486933689.6,44995,11.69,74140.0,-11.71,-38.35,-38.67,0,*64
1486933690.83,44996,11.69,74142.8,-11.73,-38.43,-38.73,0,*61
1486933692.1,44997,11.69,74138.5,-11.73,-38.17,-38.23,0,*64
1486933693.41,44998,11.69,74136.8,-11.71,-37.81,-37.99,0,*67
1486933694.64,44999,11.69,74138.0,-11.73,-38.35,-38.73,0,*6F